Location: Godiavel Galaoual
(15.2485°N, 12.6604°W)
Time: 11:32:28
(UTC+00:00)

LightSail 2 - Pass Details

Date: 11 June 2020
Orbit: 692 x 720 km, 24.0° (Epoch: 14 July)

Event Time Altitude Azimuth Distance (km) Brightness Sun altitude
Exits shadow 04:26:23 18° 153° (SSE) 1,707 7.0 -24.7°
Drops below altitude 10° 04:27:54 10° 142° (SE) 2,179 7.7 -24.4°
Sets 04:30:33 0° 133° (SE) 3,102 8.6 -23.9°
